Location: Israel
(31.9174°N, 34.8736°E)
Time: 16:03:36
(UTC+03:00)

ISS - Visible Passes

Search period start: 18 July 2025 00:00
Search period end: 28 July 2025 00:00
Orbit: 415 x 418 km, 51.6° (Epoch: 18 July)

Date Brightness Start Highest point End Pass type
(mag) Time Alt. Az. Time Alt. Az. Time Alt. Az.
21 Jul -0.1 23:04:05 10° NNW 23:04:06 10° NNW 23:04:06 10° NNW visible
22 Jul -1.0 22:16:09 10° NNW 22:17:22 16° N 22:17:22 16° N visible
23 Jul -1.2 21:28:37 10° N 21:30:04 12° NNE 21:30:39 12° NE visible
24 Jul -1.3 22:15:26 10° NW 22:16:52 23° NNW 22:16:52 23° NNW visible
25 Jul -2.5 21:27:17 10° NNW 21:30:14 30° NE 21:30:14 30° NE visible
26 Jul -1.7 20:39:20 10° N 20:41:44 18° NE 20:43:39 12° ENE visible
26 Jul -1.1 22:15:27 10° WNW 22:16:33 18° WNW 22:16:33 18° WNW visible
27 Jul -3.7 21:26:50 10° NW 21:30:02 73° WSW 21:30:02 73° WSW visible
